Regional Weather Roundup
Issued by NWS

Home | Current Version | Previous Version | Text Only | Print | Product List | Glossary On
Versions: 1 2 3 4 5 6 7 8 9 10 11 12 13 14 15 16 17 18 19 20 21 22 23 24 25 26 27 28 29 30 31 32 33 34 35 36 37 38 39 40 41 42 43 44 45 46 47 48 49 50
000
ASUS45 KREV 041810
RWRNV
NEVADA REGIONAL WEATHER ROUNDUP
NATIONAL WEATHER SERVICE RENO NV
1100 AM PDT TUE AUG 04 2015

NOTE: "FAIR" INDICATES FEW OR NO CLOUDS BELOW 12,000 FEET WITH NO
SIGNIFICANT WEATHER AND/OR OBSTRUCTIONS TO VISIBILITY.

NVZ001-003-004-041900-
WESTERN NEVADA

CITY           SKY/WX    TMP DP  RH WIND       PRES   REMARKS
RENO           MOSUNNY   80  34  19 CALM      30.06F
6HR MIN TEMP:  60; 6HR MAX TEMP:  81;

CARSON CITY    FAIR      79  32  18 NW5       30.09F
MINDEN         FAIR      75  37  25 SW3       30.08F
SLIDE MTN        N/A     59  32  36 SE9         N/A
PYRAMID LAKE     N/A     75 N/A N/A N6          N/A
FALLON         MOSUNNY   86  41  20 N6        30.02F
6HR MIN TEMP:  57; 6HR MAX TEMP:  86;

LOVELOCK       SUNNY     84  44  24 MISG      30.02F
6HR MIN TEMP:  65; 6HR MAX TEMP:  84;

HAWTHORNE      SUNNY     81  36  19 CALM      30.06
$$

NVZ002-CAZ072-073-041900-
NORTHERN AND CENTRAL SIERRA

CITY           SKY/WX    TMP DP  RH WIND       PRES   REMARKS
S. LAKE TAHOE  SUNNY     75  42  30 N7        30.16F
6HR MIN TEMP:  43; 6HR MAX TEMP:  75;

TRUCKEE        SUNNY     73  39  29 N3        30.16F
SQUAW VLY 8000   N/A     66  34  30 SE6         N/A
SUSANVILLE     SUNNY     77  39  25 CALM      30.06F
BLUE CANYON    SUNNY     72  43  35 S12       30.15R
MAMMOTH LAKES  FAIR      75  30  19 E5        30.24S
BRIDGEPORT     FAIR      75  33  21 CALM      30.17F
$$

NVZ030-031-036-041900-
NORTHERN NEVADA

CITY           SKY/WX    TMP DP  RH WIND       PRES   REMARKS
ELKO           SUNNY     81  42  25 NE6       30.09F
6HR MIN TEMP:  52; 6HR MAX TEMP:  81;

WINNEMUCCA     NOT AVBL
WENDOVER       SUNNY     75  52  43 E6        30.11S
$$

NVZ035-037-041900-
CENTRAL NEVADA

CITY           SKY/WX    TMP DP  RH WIND       PRES   REMARKS
ELY            SUNNY     85  24  11 MISG      30.18F
6HR MIN TEMP:  48; 6HR MAX TEMP:  85;

EUREKA           N/A     86  20   9 S14G21    30.13F
6HR MIN TEMP:  49; 6HR MAX TEMP:  86;

$$

NVZ013-014-041900-
SOUTH CENTRAL NEVADA

CITY           SKY/WX    TMP DP  RH WIND       PRES   REMARKS
TONOPAH        SUNNY     80  30  16 VRB6      30.14S
6HR MIN TEMP:  57; 6HR MAX TEMP:  81;

$$

NVZ017-020-022-041900-
SOUTHERN NEVADA

CITY           SKY/WX    TMP DP  RH WIND       PRES   REMARKS
LAS VEGAS      NOT AVBL
N. LAS VEGAS   SUNNY     97  37  12 SE13      29.91S
6HR MIN TEMP:  76; 6HR MAX TEMP:  97;

NELLIS AFB     SUNNY     97  37  12 W2        29.90R
6HR MIN TEMP:  75; 6HR MAX TEMP:  97;

HENDERSON      NOT AVBL
MERCURY        SUNNY     92  35  13 VRB7      29.98S
6HR MIN TEMP:  67; 6HR MAX TEMP:  92;

$$


USA.gov is the U.S. government's official web portal to all federal, state and local government web resources and services.